sat.trackr.live / text

‹ back to catalog

STARLINK-2468

NORAD 48127 · 2021-027AM

PAYLOAD ACTIVE UNKNOWN

§ Identity

Operator
Country
US
Launch date
2021-04-07
Launch site
AFETR
Launch vehicle
Mass (kg)
RCS (m²)

Purposes: comms

External: N2YO · Heavens-Above · Gunter

§ Orbital elements

Epoch: 2026-05-25T01:57:31.624992Z

Period
94.01 min
Inclination
53.1592°
Eccentricity
0.0001339
Mean motion
15.31701261 rev/d
Perigee alt
469.8 km
Apogee alt
471.7 km
Semi-major
6,848.9 km
B*
4.8540e-5
RAAN
170.0951°
Arg perigee
79.7977°
Mean anomaly
280.3175°
Rev number
28,421

§ Raw data

STARLINK-24681 48127U 21027AM  26145.08161603  .00001141  00000+0  48540-4 0  99982 48127  53.1592 170.0951 0001339  79.7977 280.3175 15.31701261284214

JSON: /api/v1/satellites/48127 · /tle

For live sub-satellite position, see the globe view (requires WebGL).

§ Visibility from observer

Set your observer location to see the next 7 days of passes ≥ 10°. The values pass through the URL so the page stays shareable.

No JS? Fill the form by hand. The geolocation button needs JavaScript.